NOAA 16 DEB, 41424

Orbit data source: Space-Track

NOAA 16 DEB, 41424 is space debris in SSO originally from a launch on Thu, 21 Sep 2000 UTC launched from the Air Force Western Test Range (AFWTR). Debris objects in space refer to the collection of defunct objects orbiting the Earth. Examples of debris include non-operational satellites, rocket bodies, and fragments generated from explosions, collisions, or faulty payload assembly.

Loading next visibility...
Identifier
41424, 2000-055LD
Orbit
SSO
Country
Flag of USUS
Related business
Manufacturer
Unknown
Mission
Spacecraft
Bus & Motor
Unknown
Mass
Unknown
Launch date (UTC)
2000-09-21 (25 years ago)
Launch vehicle
Unknown
Launch site
Air Force Western Test Range (AFWTR)
Object type
Payload
Rocket body
Debris
Shape & HBR
Unknown shape, 0.1 m
Radar Cross Section
Small (<0.1 m²)

Expand to show TLE details & history
Last TLE update: 20 hours ago

TLE from 20 hours ago
0 NOAA 16 DEB
1 41424U 00055LD  25312.19364579  .00009182  00000-0  30637-2 0  9993
2 41424  98.9490  94.9779 0023058  90.2817 270.1011 14.37584112503046
Epoch: 2025-11-08T04:38Z
TLE epoch observation values (Epoch: 2025-11-08T04:38:50.996Z)
Latitude
0.00002°
Longitude
-22.36135°
Altitude
769.431 km
Speed
7.469 km/s
True Right ascension
06h 19m 54s
True Declination
0° 00' 00"
Sunlit
Object was in full shadow at epoch
Visualization orbit readout
Latitude
Unknown
Longitude
Unknown
Altitude
Unknown
Speed
Unknown
Apparent Right ascension
Unknown
Apparent Declination
Unknown
Sunlit
N/A
Visualization observer readout
Local Sidereal Time
20:47:50
Azimuth
Unknown
Elevation
Unknown
Doppler factor
Unknown
Orbital elements
Apogee altitude
780.106 km
Perigee altitude
747.171 km
Semi-major axis
7,141.776 km
Eccentricity
0.00231
Inclination
98.949°
RAAN
94.9779°
Arg. of periapsis
90.2817°
True anomaly
269.83687°
Mean anomaly
270.1011°
Eccentric anomaly
269.96899°
Mean motion
3.59612 °/min
Orbital period
100.11 mins
BSTAR
0.0030637
Loading maneuver chart data...
Computing Atmospheric mass density...
Loading historical data...
Loading historical data...
Loading historical data...
Loading historical data...
Loading historical data...
Loading historical data...
Loading historical data...

Documentation

Showing up to 5 results
|